This is the latest recevied weather packets stored in our database for station/object PD2BVG. If no packets are shown the sender has not sent any weather packets the latest 1 day(s).
| Time | Temp. | Humidity | Pressure | Rain* | Wind** | Luminosity | Snow |
|---|---|---|---|---|---|---|---|
| 1777962842 | 10.56° C | 90% | 1012.3 hPa | 0 mm | 1.79 m/s, 340° | 62 W/m² | - |
| 1777962784 | 10.56° C | 90% | 1012.5 hPa | 0 mm | 1.79 m/s, 18° | 58 W/m² | - |
| 1777962724 | 10.56° C | 90% | 1012.4 hPa | 0 mm | 2.68 m/s, 354° | 60 W/m² | - |
| 1777962665 | 10.56° C | 90% | 1012.4 hPa | 0 mm | 3.13 m/s, 348° | 58 W/m² | - |
| 1777962605 | 10.56° C | 89% | 1012.5 hPa | 0 mm | 2.68 m/s, 20° | 58 W/m² | - |
| 1777962545 | 10.56° C | 89% | 1012.5 hPa | 0 mm | 2.68 m/s, 338° | 53 W/m² | - |
| 1777962484 | 10.56° C | 89% | 1012.6 hPa | 0 mm | 2.68 m/s, 0° | 49 W/m² | - |
| 1777962421 | 10.56° C | 89% | 1012.6 hPa | 0 mm | 2.68 m/s, 327° | 46 W/m² | - |
| 1777962362 | 10.56° C | 89% | 1012.6 hPa | 0 mm | 2.24 m/s, 327° | 44 W/m² | - |
| 1777962303 | 10.56° C | 89% | 1012.6 hPa | 0 mm | 3.13 m/s, 326° | 44 W/m² | - |
| 1777962242 | 10.56° C | 89% | 1012.6 hPa | 0 mm | 2.68 m/s, 341° | 44 W/m² | - |
| 1777962182 | 10.56° C | 89% | 1012.7 hPa | 0 mm | 2.24 m/s, 0° | 44 W/m² | - |
| 1777962122 | 10.56° C | 89% | 1012.6 hPa | 0 mm | 2.24 m/s, 338° | 42 W/m² | - |
| 1777962062 | 10.56° C | 89% | 1012.6 hPa | 0 mm | 2.68 m/s, 0° | 44 W/m² | - |
| 1777962004 | 10.56° C | 89% | 1012.7 hPa | 0 mm | 2.68 m/s, 1° | 44 W/m² | - |
| 1777961941 | 10.56° C | 89% | 1012.7 hPa | 0 mm | 2.68 m/s, 345° | 44 W/m² | - |
| 1777961881 | 10.56° C | 89% | 1012.7 hPa | 0 mm | 2.68 m/s, 0° | 42 W/m² | - |
| 1777961821 | 10.56° C | 89% | 1012.8 hPa | 0 mm | 2.68 m/s, 323° | 42 W/m² | - |
| 1777961761 | 10.56° C | 89% | 1012.7 hPa | 0 mm | 2.68 m/s, 333° | 44 W/m² | - |
| 1777961701 | 10.56° C | 89% | 1012.6 hPa | 0 mm | 3.13 m/s, 0° | 41 W/m² | - |
| 1777961642 | 10.56° C | 89% | 1012.6 hPa | 0 mm | 3.58 m/s, 327° | 39 W/m² | - |
| 1777961581 | 10.56° C | 89% | 1012.6 hPa | 0 mm | 2.68 m/s, 324° | 39 W/m² | - |
| 1777961522 | 10.56° C | 89% | 1012.7 hPa | 0 mm | 2.68 m/s, 338° | 39 W/m² | - |
| 1777961463 | 10.56° C | 89% | 1012.6 hPa | 0 mm | 2.68 m/s, 338° | 42 W/m² | - |
| 1777961403 | 10.56° C | 89% | 1012.6 hPa | 0 mm | 2.24 m/s, 338° | 44 W/m² | - |
* Rain latest hour (hover to see other rain measurements)
** Current wind speed in m/s (hover to see current wind gust speed)